Regional Weather Roundup
Issued by NWS Newport/Morehead, NC

Current Version | Previous Version | Text Only | Print | Product List | Glossary Off
Versions: 1 2 3 4 5 6 7 8 9 10 11 12 13 14 15 16 17 18 19 20 21 22 23 24 25 26 27 28 29 30 31 32 33 34 35 36 37 38 39 40 41 42 43 44 45 46 47 48 49 50
000 ASUS42 KMHX 010924 RWRMHX WEATHER ROUNDUP FOR EASTERN NORTH CAROLINA NATIONAL WEATHER SERVICE NEWPORT/MOREHEAD CITY NC 400 AM EST SUN MAR 01 2015 NOTE: "FAIR" INDICATES FEW OR NO CLOUDS BELOW 12,000 FEET WITH NO SIGNIFICANT WEATHER AND/OR OBSTRUCTIONS TO VISIBILITY NCZ015>017-031-032-045>047-102-103-011000- NORTH COAST CITY SKY/WX TMP DP RH WIND PRES REMARKS EDENTON CLOUDY 29 24 79 N3 30.62S ELIZABETH CITY PTCLDY 31 25 78 N9 30.62F KITTY HAWK SUNNY 36 32 87 N7 30.58F MANTEO CLEAR 36 32 87 N10 30.60S $$ NCZ045>047-081-094-103-104-011000- CENTRAL COAST CITY SKY/WX TMP DP RH WIND PRES REMARKS FRISCO PTCLDY 37 36 96 N8 30.56F SWANQUARTER N/A 34 N/A N/A NE9G15 30.53S $$ NCZ095-097-098-100-101-011000- SOUTHERN COAST CITY SKY/WX TMP DP RH WIND PRES REMARKS BEAUFORT MOCLDY 36 31 82 N10 30.57S CEDAR ISLAND N/A 36 N/A N/A N9 30.59S JACKSONVILLE CLOUDY 34 27 75 N8 30.56F PINEY ISLAND N/A N/A N/A N/A MISG 30.57F WILMINGTON CLOUDY 36 28 73 NE9 30.54F $$ NCZ011>013-027>030-043-044-078>080-089-090>093-098-011000- COASTAL PLAIN CITY SKY/WX TMP DP RH WIND PRES REMARKS AHOSKIE CLOUDY 28 20 72 N6 30.64S CLINTON LGT RAIN 34 27 76 N6 30.59R ELIZABETHTOWN LGT RAIN 35 29 78 N3 30.56F GOLDSBORO NOT AVBL GREENVILLE CLOUDY 32 21 64 NE3 30.60S HAVELOCK MOCLDY 34 27 75 NE9 30.58F KENANSVILLE MIX PCPN 33 25 73 CALM 30.58F KINSTON CLOUDY 32 22 67 NE8 30.60F NEW BERN PTCLDY 33 24 69 N7 30.59F RICHLANDS CLOUDY 34 25 69 N8 30.57S ROCKY MOUNT CLOUDY 30 18 60 NE8 30.61F WASHINGTON CLOUDY 31 22 68 NE6 30.60F WHITEVILLE LGT RAIN 36 28 74 N3 30.54F $$ AMZ130-135-150-152-154-156-158-170-250-252-270-ANZ085-086-088-633-658-670-011000- MARINE OBSERVATIONS STATION/POSITION TIME TEMP WIND PRES WAVE SWELL AIR SEA DIR/SP/G HT/PER HT/PER (UTC) (F) (DEG/KT/KT) (MB) (FT/S) (FT/S) CHESAPEAKE LIGHT 0900 34 50/ 15/ 16 1037.6 64 E VA BEACH 0850 49 64 70/ 14/ 17 1035.6 4/10 3/10 DUCK 0900 36 34 10/ 11/ 13 1035.3 2 E DUCK 0911 34 N/A 4/ 5 2/11 10 NE DUCK 0822 37 N/A 4/10 2/11 OREGON INLET 0900 36 38 350/ 10/ 12 1035.6 HATTERAS CG 0900 38 39 30/ 9/ 12 1034.9 CAPE LOOKOUT 0900 38 10/ 11/ 13 1034.4 BEAUFORT LAB 0900 36 41 20/ 11/ 13 1033.8 27 SE WRIGHTSVLE NOT AVBL 5 SE WRIGHTSVLE NOT AVBL 225 S CAPE HAT 0850 66 71 80/ 19/ 23 1032.0 9/10 3/10 41 SE CHARLESTON 0850 57 66 30/ 23/ 27 1029.8 10/ 8 5/11 $$

USA.gov is the U.S. government's official web portal to all federal, state and local government web resources and services.